Temperature
22 22 22 22 19 18 19 21 25 26 27 29 29 28 26 25 24 23 24 23 23 23 22 22 22 22 22 22 21 21 21 21 21 21 21 20 20 20 20 20 20 20 19 19 19 19 19 19 19
22 22 22 21 18 18 19 22 25 26 28 29 28 28 26 25 25 24 24 23 23 23 23 22 22 22 22 22 21 21 21 21 20 20 20 20 20 20 20 20 20 19 19 19 19 19 19 19 19
22 22 22 18 18 18 21 23 25 27 29 29 28 28 26 25 25 25 25 24 23 23 22 22 22 22 21 21 21 21 21 20 20 20 20 20 20 20 20 20 19 19 19 19 19 19 19 19 19
22 22 21 17 19 20 22 24 25 27 28 29 28 26 26 25 26 25 25 24 23 23 22 22 22 21 21 21 21 21 20 20 20 20 20 20 20 20 20 19 19 19 19 19 19 19 19 19 18
21 21 18 18 19 21 23 25 26 26 27 28 27 25 25 25 25 25 24 24 23 23 22 22 21 21 21 21 21 20 20 20 20 20 20 20 20 19 19 19 19 19 19 19 19 19 19 18 18
21 18 17 18 20 22 23 26 27 26 27 27 26 25 23 24 25 24 24 23 23 23 22 21 21 21 21 20 20 20 20 20 20 20 19 19 19 19 19 19 19 19 19 19 19 19 18 18 18
20 16 18 20 20 21 24 27 26 26 26 26 26 24 23 23 24 24 23 23 22 22 22 21 21 21 20 20 20 20 20 20 19 19 19 19 19 19 19 19 19 19 19 19 19 18 18 18 18
22 17 20 19 21 22 24 26 27 26 26 26 26 23 22 22 22 22 22 22 22 21 21 21 21 20 20 20 20 20 19 19 19 19 19 19 19 19 19 19 19 18 18 18 18 18 18 18 18
22 17 18 20 22 22 24 24 26 26 26 25 25 24 23 22 22 22 21 21 21 21 21 21 20 20 20 20 20 19 19 19 19 19 19 19 19 19 19 18 18 18 18 18 18 18 18 18 18
21 17 19 21 22 23 24 24 25 25 24 24 23 23 23 22 22 22 21 21 21 20 20 20 20 20 20 20 19 19 19 19 19 19 19 19 19 19 18 18 18 18 18 18 18 18 18 18 18
21 19 20 22 24 24 24 24 25 24 22 23 22 22 22 22 22 21 21 21 21 21 20 20 20 20 20 19 19 19 19 19 18 18 18 18 18 18 18 18 18 18 18 18 18 18 18 17 17
21 21 23 24 25 25 25 25 24 23 23 23 23 22 22 22 21 21 20 20 20 20 20 20 20 19 19 19 19 19 19 18 18 18 18 18 18 18 18 18 18 18 18 18 17 17 17 17 17
21 22 24 25 25 25 25 24 23 22 22 22 22 22 21 21 20 20 20 20 20 19 19 19 19 19 19 19 19 18 18 18 18 18 18 18 18 18 18 18 18 17 17 17 17 17 17 17 17
22 23 24 25 25 25 24 23 23 22 22 21 21 20 19 19 20 20 19 19 19 19 19 19 19 19 19 18 18 18 18 18 18 17 18 18 18 17 17 17 17 17 17 17 17 17 17 17 17
24 22 22 23 24 24 24 22 21 22 21 20 19 18 18 18 19 19 19 19 19 19 19 19 19 18 18 18 18 18 18 17 17 17 17 17 17 17 17 17 17 17 17 17 17 17 16 16 16
21 21 21 21 23 23 22 20 21 22 20 19 18 18 18 18 18 18 18 18 18 18 18 18 18 18 18 18 17 17 17 17 17 17 17 17 17 17 17 17 17 16 16 16 16 16 16 16 16
20 20 20 21 22 22 21 20 20 21 20 18 17 17 17 17 17 17 18 18 18 18 17 17 17 17 17 17 17 17 17 17 16 16 16 16 16 16 16 16 16 16 16 16 16 16 16 16 16
19 20 21 21 22 22 20 19 19 19 19 17 16 16 16 16 16 16 17 17 17 17 17 17 16 16 16 16 16 16 16 16 15 15 15 16 16 15 16 16 16 16 16 16 16 16 16 16 15
21 21 21 22 22 21 20 19 18 18 17 16 15 15 15 15 15 16 16 16 16 16 16 16 16 16 15 16 15 15 15 15 15 15 15 15 15 15 15 15 15 15 15 15 15 15 15 15 15
22 21 21 21 22 22 19 18 17 16 16 15 14 14 14 15 15 15 15 15 15 15 16 16 16 16 15 15 15 15 15 14 14 14 14 15 15 15 15 15 15 15 15 15 15 15 15 14 14
22 21 21 22 21 20 19 17 16 16 15 14 14 13 13 14 14 14 14 14 14 14 14 14 15 15 15 15 14 14 14 14 14 14 14 14 14 14 14 14 15 14 14 14 14 14 14 14 14
21 22 22 22 20 18 19 16 16 15 15 14 13 13 13 13 13 13 13 13 13 13 13 14 14 14 14 14 14 14 14 14 14 13 13 13 13 13 13 14 14 14 14 14 14 14 14 14 13
22 22 22 21 19 17 17 16 15 15 14 14 13 12 12 12 12 12 12 12 12 12 12 13 13 13 14 14 14 14 14 13 13 13 13 13 13 13 13 13 13 13 13 13 13 13 13 13 13
23 21 19 17 16 16 17 16 15 14 15 14 13 12 12 11 12 12 12 12 12 12 12 12 12 13 13 13 13 13 13 13 12 12 12 12 12 12 12 12 12 13 13 13 13 13 13 12 12
20 17 16 16 15 16 16 16 14 14 15 14 12 12 11 11 11 12 11 11 11 11 11 11 11 12 12 12 12 12 12 12 12 12 12 12 12 12 12 12 12 12 12 12 12 12 12 12 12
20 18 16 16 16 15 16 15 14 14 14 13 12 11 11 11 11 11 10 10 10 10 10 10 10 11 11 11 11 11 11 11 11 11 11 11 11 11 11 11 11 11 11 11 11 11 11 11 11
20 18 17 15 16 15 14 14 14 13 13 12 11 11 10 10 10 10 10 10 9 9 9 10 10 10 10 10 10 10 10 10 10 10 10 10 10 10 10 10 10 10 10 11 11 11 11 11 11
20 19 15 15 15 15 15 14 13 13 13 12 11 10 9 9 9 9 9 9 9 9 9 9 9 9 9 9 10 9 9 9 9 9 10 10 10 9 9 9 10 10 10 10 10 10 9 10 10
20 19 16 14 14 14 14 14 15 13 13 12 11 10 9 9 9 9 9 8 8 8 8 8 8 9 9 9 9 9 8 8 8 8 8 8 8 8 8 8 8 9 9 9 9 9 9 9 9
19 19 16 15 15 14 13 13 14 13 12 11 10 9 9 9 8 8 8 8 8 8 8 8 8 8 8 8 8 8 8 8 8 8 8 8 8 8 7 8 8 8 8 8 8 8 8 8 8
Wind_Speed
7 6 1 3 5 3 5 7 5 6 3 0 5 8 9 6 5 4 5 16 17 17 18 22 22 22 22 21 20 20 19 19 19 19 19 19 19 18 18 17 16 15 14 14 14 14 14 14 15
3 2 3 5 5 1 7 7 6 7 5 3 5 8 8 5 6 9 8 14 19 18 19 21 23 22 22 21 21 20 20 19 18 18 18 18 18 17 16 16 15 14 14 13 13 13 13 13 13
3 0 4 4 4 7 7 6 4 4 3 3 3 4 6 8 9 9 11 19 18 16 17 20 24 22 22 21 21 20 20 19 18 18 17 17 17 16 15 15 14 14 13 13 13 12 12 12 12
2 4 4 3 7 9 8 10 8 7 4 1 4 5 4 5 9 11 19 20 19 16 17 21 23 22 21 21 20 20 20 19 18 18 17 17 16 15 15 14 14 13 13 13 12 12 11 10 10
4 4 3 3 8 8 9 12 10 7 4 1 5 5 4 3 13 20 21 20 19 15 14 19 22 21 21 20 20 19 19 18 18 17 17 16 16 15 14 14 13 13 12 12 12 11 10 9 8
4 5 3 4 8 9 8 9 7 4 2 2 6 7 4 7 16 18 18 17 17 16 14 17 20 21 20 20 19 19 19 18 18 17 17 16 16 15 14 13 13 12 12 12 12 11 10 9 7
4 4 3 5 6 8 10 7 2 2 3 1 4 7 4 7 12 16 16 15 15 14 12 12 15 18 19 19 18 18 18 18 17 17 16 16 15 14 14 13 13 12 12 12 12 11 10 8 7
6 4 2 4 5 7 8 7 3 4 3 3 5 8 6 7 12 15 14 13 13 12 11 9 11 13 15 16 17 17 17 17 17 16 16 15 14 14 13 12 12 12 12 12 12 11 10 9 7
5 4 3 5 4 6 7 7 7 4 6 6 7 7 8 14 16 16 14 12 11 11 9 9 9 10 12 13 15 16 16 16 16 15 15 14 12 12 12 11 12 12 12 12 11 11 10 9 7
5 4 8 7 5 4 5 5 5 6 9 7 9 10 12 14 15 16 15 13 12 11 10 8 9 9 10 11 11 11 12 13 13 13 13 12 11 11 11 12 12 12 12 11 11 11 10 8 6
6 8 8 7 7 3 2 6 6 5 5 4 8 10 10 11 9 11 13 13 13 11 9 8 8 8 8 7 9 8 8 9 10 11 12 11 10 9 9 8 9 9 10 9 9 9 8 7 6
5 9 8 7 5 1 0 2 5 5 2 5 9 10 11 11 8 8 9 10 11 11 9 8 7 7 7 7 6 7 5 5 6 9 11 9 6 5 6 6 7 7 6 6 5 5 6 6 7
7 9 8 7 4 2 2 2 3 2 3 7 11 12 11 10 8 7 7 9 9 9 7 7 8 7 5 5 5 5 4 5 6 8 10 10 6 5 5 6 7 7 6 5 4 5 4 4 4
6 5 5 4 3 1 2 1 2 1 5 9 11 11 10 10 9 9 8 8 8 7 7 6 7 7 6 5 4 4 5 6 7 7 9 10 8 6 5 5 5 5 7 7 6 5 3 2 2
3 3 5 4 3 3 3 3 2 5 8 10 10 11 11 9 9 9 6 6 6 5 5 6 6 6 6 5 4 3 4 5 4 5 7 8 8 7 6 4 4 5 7 6 5 4 4 3 3
5 4 3 8 4 3 7 3 4 4 10 10 10 11 11 9 9 8 7 7 5 5 5 4 4 4 4 4 3 2 2 2 3 3 5 6 7 7 5 4 4 5 6 4 3 4 4 3 4
4 2 6 9 4 3 6 4 3 5 13 11 11 11 11 10 10 8 8 7 6 6 5 4 4 3 4 4 3 3 3 4 3 3 4 4 5 6 5 3 3 6 4 3 4 4 5 5 5
5 4 4 5 4 4 5 5 4 6 12 12 11 11 11 10 9 7 8 8 7 6 6 5 4 3 2 3 4 4 4 4 4 3 3 3 3 3 4 3 3 4 3 3 3 5 5 5 5
6 5 6 6 4 4 6 5 4 7 10 10 10 10 11 9 8 8 8 8 7 7 7 5 4 4 2 2 3 3 3 2 2 3 3 3 2 2 2 2 3 3 3 4 5 6 7 5 5
7 7 6 5 2 3 6 5 4 6 7 8 9 9 10 9 9 9 9 10 9 7 6 5 4 3 2 2 2 3 4 2 2 2 3 4 4 3 2 2 2 3 3 4 5 6 4 4 4
6 4 3 2 4 5 6 3 3 5 8 9 9 8 8 10 10 10 10 10 10 9 8 5 5 4 3 4 4 4 3 2 2 2 2 4 5 5 4 3 2 2 3 3 4 5 6 5 3
5 4 2 1 3 2 2 2 1 3 5 7 7 7 7 8 10 10 10 10 10 9 8 7 6 5 4 4 5 5 5 3 3 2 2 3 6 6 5 4 4 2 2 3 3 3 3 5 4
5 2 2 2 2 2 3 3 2 3 3 4 5 6 7 8 9 10 10 9 9 9 8 8 7 7 7 6 6 6 6 4 4 4 5 5 5 6 6 6 5 3 2 3 3 3 3 3 3
3 5 7 6 5 2 2 3 2 2 4 6 6 7 8 9 9 9 9 8 8 8 8 8 8 8 7 7 7 6 7 6 6 6 5 5 4 4 6 7 6 5 4 4 4 4 5 3 3
6 7 5 6 4 3 2 2 3 2 4 9 10 9 8 8 9 9 8 8 8 9 8 8 8 8 7 7 7 7 6 7 7 5 5 5 4 4 5 5 5 5 5 5 4 6 6 5 4
2 8 7 4 4 4 2 1 1 1 4 9 10 10 10 9 8 8 8 8 8 8 8 8 8 8 7 7 7 6 6 5 5 5 5 4 4 4 4 5 6 6 7 6 5 5 6 6 6
3 2 7 6 1 1 1 1 0 3 6 10 10 10 9 8 8 8 8 7 8 8 8 7 7 7 7 7 6 6 6 6 5 5 5 4 4 4 5 6 6 6 7 7 6 6 6 7 7
4 5 6 5 3 2 2 3 4 8 9 10 10 10 9 8 8 8 7 7 7 6 6 7 7 7 6 6 6 6 6 6 6 5 6 6 6 5 5 6 6 7 7 7 7 7 7 8 7
2 2 5 4 5 5 3 5 4 11 12 12 10 10 9 8 7 6 6 6 6 6 6 7 7 7 6 7 7 7 6 6 6 6 6 6 6 6 6 6 7 8 8 7 8 8 8 9 9
3 4 6 5 3 5 4 5 1 9 11 12 12 11 9 9 8 7 6 6 6 7 6 7 6 6 6 6 7 7 7 7 7 7 6 6 7 7 7 7 8 8 8 8 8 8 8 9 9
Wind_Direction
303 292 118 62 56 44 254 250 255 289 296 355 111 107 110 113 141 163 156 152 146 149 156 157 153 149 145 142 138 134 131 128 126 123 121 120 119 118 119 120 121 123 123 124 123 122 122 122 121
301 300 68 66 97 243 265 252 257 255 222 148 97 101 96 87 110 121 131 153 147 149 153 156 155 151 149 146 143 140 138 136 133 130 128 126 125 124 124 126 127 127 128 128 128 127 127 126 124
278 110 91 90 159 202 242 264 271 291 240 153 116 93 111 132 132 142 152 147 141 146 151 157 156 154 152 149 147 145 144 143 140 138 136 134 132 131 132 133 134 134 134 135 134 133 132 131 129
43 51 58 96 242 236 238 273 289 298 298 106 118 87 93 137 147 144 140 142 141 146 151 157 156 155 154 153 151 150 149 149 147 145 144 142 140 140 141 141 142 143 142 142 141 140 138 137 135
64 78 68 287 260 262 261 267 270 258 256 112 105 100 76 56 117 129 138 142 143 144 146 154 155 154 155 156 155 154 153 153 153 151 150 149 148 149 149 149 149 149 148 148 147 147 146 145 145
53 73 104 255 272 283 282 269 264 226 209 122 107 110 73 109 123 135 139 141 141 141 140 148 154 155 156 158 157 157 156 156 156 156 156 155 154 155 155 156 155 155 154 154 153 154 154 155 157
119 107 194 244 283 297 294 294 250 156 89 70 116 102 103 119 133 136 133 131 131 133 134 139 151 155 157 158 158 157 157 158 158 158 158 159 160 161 163 163 162 161 160 161 161 163 166 167 171
146 96 312 289 283 287 298 329 8 76 82 39 80 116 139 142 127 122 120 120 124 126 132 136 144 151 156 159 161 161 160 161 161 160 160 162 165 166 167 167 168 170 170 171 171 173 177 181 187
115 80 262 254 260 282 317 352 351 35 66 50 60 100 131 130 123 120 117 114 122 129 134 141 143 148 153 158 163 163 165 165 164 165 166 164 165 166 169 172 175 178 179 180 181 185 188 193 203
113 165 234 225 226 268 325 355 351 37 49 53 64 78 107 115 124 130 134 137 139 143 150 151 153 154 153 161 158 161 167 169 168 169 169 167 165 168 171 176 180 184 187 189 192 197 199 202 212
170 201 234 252 245 231 338 357 8 69 49 88 112 111 110 106 116 133 141 146 148 147 147 150 160 158 154 149 150 160 167 171 175 173 171 169 167 172 172 175 183 185 188 191 200 205 207 206 212
222 248 241 251 248 218 19 23 22 51 107 114 112 111 101 102 104 119 137 143 142 143 148 148 154 157 160 152 157 161 163 171 183 183 177 172 169 171 171 171 174 177 183 186 194 204 214 214 213
236 253 256 248 259 219 100 74 92 63 98 90 92 93 98 103 101 101 110 122 129 138 145 153 155 152 152 148 156 158 157 170 182 186 182 179 175 176 170 173 177 184 187 186 197 198 203 213 211
250 251 261 261 260 216 149 278 84 198 112 89 87 90 88 86 86 83 88 97 109 133 146 150 151 148 144 152 164 159 164 178 182 182 187 182 176 173 174 175 171 183 197 196 194 191 179 182 167
291 320 323 290 255 229 119 339 236 187 114 101 97 92 86 80 79 79 89 103 117 126 129 130 143 149 147 148 160 153 156 165 167 169 174 174 170 167 167 168 173 185 193 192 186 178 157 163 159
359 19 312 286 245 222 127 229 248 165 117 111 108 102 93 78 75 75 76 84 91 93 91 111 124 127 138 144 141 115 112 110 113 134 155 164 166 170 167 164 175 178 182 176 174 172 154 154 144
1 308 273 288 260 180 138 188 215 127 113 111 106 100 93 84 73 71 73 82 92 98 97 101 84 91 121 128 119 100 86 79 85 102 112 133 149 159 161 164 170 164 167 176 180 161 145 141 133
257 264 286 278 272 132 144 165 148 112 115 115 112 105 97 87 76 73 74 77 82 84 87 85 86 84 97 102 97 96 88 73 63 76 87 99 125 163 165 159 165 160 166 169 158 140 134 137 134
244 275 291 282 278 114 138 137 128 115 110 113 112 107 101 93 81 69 66 64 65 61 65 72 71 73 72 104 122 115 109 106 86 64 76 90 102 160 163 162 158 157 173 171 154 139 132 131 127
250 264 281 300 20 100 115 102 95 94 104 111 110 108 105 98 78 64 59 53 51 53 53 59 60 73 89 114 128 127 128 115 100 58 55 68 74 62 82 90 146 154 154 147 148 138 134 146 147
265 228 245 279 11 52 94 56 74 88 93 92 85 86 89 95 89 76 64 56 48 39 31 38 38 61 81 101 115 119 111 110 86 46 44 40 65 66 61 70 86 110 140 149 153 149 148 161 171
263 251 178 78 61 314 120 176 237 128 97 96 96 90 83 81 83 79 69 61 54 40 25 23 40 49 59 81 103 116 120 119 104 91 82 60 60 64 59 64 72 85 112 133 148 143 152 156 163
213 225 76 66 98 33 15 127 245 145 126 125 115 105 94 85 80 77 71 63 55 46 36 28 40 42 45 60 78 89 92 88 91 85 78 65 57 54 54 56 61 71 84 91 98 100 116 147 160
159 57 34 42 67 42 283 147 231 215 193 152 133 116 102 93 84 76 68 63 54 47 41 36 40 39 41 54 64 83 94 93 88 80 76 63 55 51 45 53 58 59 63 66 81 94 96 105 120
73 78 31 3 14 260 267 123 229 269 168 151 146 130 108 95 87 76 62 55 52 46 41 40 44 42 42 53 57 66 81 91 91 90 87 81 68 58 44 51 59 62 60 59 67 81 83 87 97
140 129 150 196 224 267 328 181 236 24 114 123 125 123 109 98 91 84 71 61 58 50 43 44 50 45 43 51 54 58 67 82 90 90 93 87 80 64 55 57 59 59 62 63 65 74 76 80 84
110 146 162 143 166 257 255 179 235 126 127 132 131 124 116 108 98 89 76 65 60 54 47 46 52 51 46 51 59 60 66 78 85 84 86 81 73 72 63 67 67 61 60 61 65 70 70 76 77
135 149 92 111 147 244 262 216 210 189 177 160 146 136 124 114 101 92 84 72 63 56 49 50 51 54 49 50 59 69 62 67 75 79 79 77 73 71 71 67 66 64 61 62 67 69 67 72 67
43 86 115 126 154 162 234 259 214 187 179 165 150 138 132 122 112 101 90 81 72 60 52 51 53 53 53 56 62 65 62 62 66 68 70 76 76 73 72 72 72 71 68 68 73 72 71 73 66
162 181 151 151 198 168 177 256 279 165 160 152 142 135 127 119 111 101 92 83 74 65 58 56 53 56 60 66 69 67 65 63 63 63 60 66 69 68 70 70 71 73 71 69 73 74 71 74 71
Height
1516 1516 1518 1519 1522 1532 1532 1515 1502 1495 1492 1488 1487 1488 1491 1497 1503 1511 1506 1507 1511 1515 1519 1522 1525 1527 1529 1531 1533 1535 1536 1538 1540 1541 1543 1545 1547 1548 1550 1551 1552 1554 1555 1556 1557 1558 1558 1559 1560
1514 1516 1518 1518 1529 1540 1530 1507 1500 1492 1490 1488 1488 1489 1491 1496 1497 1501 1503 1508 1511 1515 1518 1521 1524 1527 1529 1531 1534 1535 1537 1539 1541 1542 1544 1546 1548 1549 1550 1552 1553 1554 1555 1556 1557 1558 1559 1560 1561
1513 1514 1517 1520 1529 1533 1520 1501 1496 1490 1487 1486 1487 1489 1491 1495 1497 1499 1502 1507 1511 1515 1518 1522 1525 1528 1530 1532 1534 1536 1538 1540 1541 1543 1545 1547 1548 1549 1551 1552 1553 1554 1555 1556 1557 1559 1560 1561 1562
1513 1515 1516 1524 1525 1515 1507 1497 1495 1492 1489 1486 1486 1490 1493 1496 1496 1498 1502 1506 1510 1514 1518 1522 1525 1528 1531 1533 1535 1537 1539 1540 1542 1544 1545 1547 1549 1550 1551 1552 1553 1555 1556 1557 1558 1559 1560 1561 1563
1512 1513 1520 1526 1520 1507 1499 1494 1493 1491 1488 1486 1486 1491 1494 1496 1497 1499 1502 1506 1510 1514 1518 1522 1526 1529 1531 1534 1536 1538 1539 1541 1543 1544 1546 1547 1549 1550 1551 1553 1554 1555 1556 1557 1558 1559 1560 1562 1563
1513 1514 1528 1530 1518 1504 1496 1491 1489 1487 1486 1486 1487 1491 1496 1498 1498 1500 1503 1507 1511 1514 1517 1522 1525 1528 1531 1534 1536 1538 1540 1542 1543 1545 1546 1547 1549 1550 1551 1553 1554 1555 1556 1557 1558 1559 1561 1562 1564
1513 1518 1524 1520 1515 1506 1494 1488 1486 1485 1486 1487 1487 1492 1498 1500 1500 1502 1505 1508 1511 1515 1518 1521 1525 1528 1531 1533 1536 1538 1540 1542 1543 1545 1546 1547 1549 1550 1551 1552 1554 1554 1555 1557 1558 1559 1561 1562 1564
1510 1515 1518 1518 1513 1506 1494 1489 1487 1486 1487 1488 1488 1492 1497 1500 1502 1504 1506 1509 1512 1515 1518 1521 1524 1527 1530 1533 1535 1537 1540 1541 1543 1544 1546 1547 1548 1549 1551 1552 1553 1554 1555 1556 1557 1559 1560 1562 1563
1509 1519 1524 1516 1509 1503 1494 1491 1489 1488 1487 1489 1490 1492 1496 1500 1502 1504 1507 1509 1512 1514 1518 1521 1524 1527 1529 1532 1534 1537 1539 1541 1542 1543 1545 1546 1547 1548 1549 1551 1552 1553 1554 1555 1557 1558 1560 1561 1562
1507 1520 1514 1504 1501 1499 1495 1493 1491 1491 1490 1492 1493 1495 1498 1500 1502 1503 1505 1508 1511 1513 1517 1520 1523 1525 1528 1530 1532 1535 1537 1539 1541 1542 1543 1545 1546 1547 1548 1550 1551 1552 1553 1554 1556 1557 1559 1560 1561
1504 1508 1501 1498 1497 1496 1495 1494 1493 1493 1496 1495 1496 1498 1500 1501 1503 1504 1505 1507 1510 1513 1516 1519 1523 1525 1526 1528 1530 1533 1535 1538 1539 1540 1542 1543 1544 1545 1546 1548 1549 1550 1551 1553 1554 1556 1557 1559 1560
1502 1498 1497 1495 1494 1494 1494 1494 1495 1495 1498 1497 1497 1498 1500 1502 1503 1505 1506 1508 1510 1513 1516 1518 1521 1523 1526 1528 1529 1531 1533 1535 1537 1538 1540 1541 1542 1543 1544 1545 1546 1548 1549 1551 1552 1554 1556 1557 1559
1498 1495 1493 1492 1492 1492 1492 1494 1496 1498 1498 1498 1498 1499 1501 1502 1504 1506 1507 1509 1510 1512 1515 1516 1519 1522 1524 1526 1528 1530 1531 1533 1534 1536 1537 1538 1539 1541 1542 1543 1544 1545 1547 1548 1550 1552 1553 1555 1556
1494 1492 1490 1490 1490 1491 1492 1494 1496 1498 1498 1498 1498 1500 1502 1503 1505 1506 1507 1508 1510 1512 1514 1515 1518 1520 1522 1524 1526 1527 1529 1531 1532 1534 1535 1537 1537 1538 1540 1541 1542 1543 1545 1546 1548 1549 1551 1553 1554
1492 1492 1491 1488 1488 1490 1492 1497 1496 1497 1497 1498 1500 1502 1503 1504 1505 1506 1507 1508 1510 1512 1513 1515 1516 1518 1520 1522 1524 1526 1527 1528 1529 1530 1532 1533 1534 1536 1537 1538 1539 1540 1541 1543 1545 1547 1549 1550 1551
1492 1496 1501 1491 1487 1487 1495 1505 1497 1496 1496 1499 1501 1503 1503 1505 1506 1507 1508 1509 1510 1512 1513 1514 1515 1516 1518 1520 1522 1522 1524 1525 1526 1527 1529 1530 1531 1532 1534 1534 1536 1537 1538 1540 1541 1543 1545 1547 1549
1502 1507 1504 1495 1485 1486 1494 1502 1497 1495 1495 1499 1503 1504 1503 1505 1506 1507 1508 1509 1510 1511 1512 1513 1514 1515 1516 1517 1519 1519 1521 1521 1522 1524 1526 1527 1527 1529 1530 1531 1533 1534 1535 1537 1538 1540 1541 1544 1545
1509 1505 1501 1498 1487 1487 1494 1499 1497 1497 1496 1500 1503 1504 1505 1505 1507 1508 1508 1509 1509 1510 1511 1512 1513 1513 1514 1515 1515 1517 1518 1519 1520 1521 1523 1524 1525 1526 1527 1528 1529 1531 1532 1533 1535 1537 1538 1541 1542
1498 1499 1500 1492 1484 1488 1495 1499 1500 1498 1499 1501 1502 1504 1505 1506 1508 1508 1509 1509 1509 1509 1509 1510 1511 1511 1512 1512 1513 1514 1514 1516 1517 1518 1521 1522 1523 1523 1524 1524 1525 1527 1528 1530 1531 1533 1534 1537 1539
1493 1497 1497 1491 1484 1488 1497 1503 1503 1502 1503 1504 1504 1505 1505 1506 1507 1508 1509 1509 1510 1509 1509 1509 1509 1510 1511 1511 1512 1513 1514 1515 1516 1516 1518 1519 1519 1520 1520 1520 1522 1523 1525 1526 1527 1528 1530 1533 1535
1491 1494 1494 1492 1489 1490 1498 1509 1508 1508 1508 1508 1508 1509 1508 1508 1507 1508 1509 1510 1511 1510 1510 1508 1508 1509 1509 1510 1510 1512 1513 1514 1514 1515 1515 1516 1516 1517 1517 1518 1518 1520 1521 1522 1524 1525 1527 1529 1532
1493 1484 1484 1487 1497 1507 1502 1521 1514 1511 1512 1512 1512 1512 1512 1511 1509 1508 1510 1510 1510 1511 1511 1510 1509 1509 1509 1509 1510 1510 1510 1511 1511 1513 1513 1514 1514 1515 1515 1515 1516 1518 1519 1519 1521 1522 1524 1526 1527
1483 1479 1481 1486 1496 1507 1507 1517 1519 1512 1514 1515 1514 1514 1513 1513 1512 1511 1511 1511 1511 1511 1511 1511 1510 1510 1509 1508 1509 1508 1509 1509 1510 1511 1512 1513 1513 1513 1514 1514 1514 1516 1516 1517 1518 1519 1521 1522 1524
1475 1481 1488 1497 1506 1518 1511 1515 1519 1513 1511 1512 1514 1515 1514 1514 1513 1513 1513 1512 1512 1512 1511 1511 1510 1509 1509 1508 1508 1508 1508 1509 1509 1510 1511 1511 1511 1512 1513 1513 1514 1514 1514 1515 1516 1517 1518 1519 1521
1479 1498 1517 1519 1526 1522 1508 1513 1517 1508 1506 1508 1512 1514 1515 1514 1513 1513 1514 1513 1512 1512 1511 1511 1510 1509 1509 1509 1508 1508 1508 1509 1509 1510 1510 1510 1510 1511 1511 1512 1513 1513 1513 1513 1514 1515 1516 1517 1518
1482 1495 1518 1527 1528 1523 1512 1516 1515 1509 1508 1509 1511 1513 1514 1514 1514 1514 1514 1514 1513 1512 1512 1511 1511 1510 1510 1510 1509 1509 1509 1509 1510 1510 1511 1510 1510 1511 1511 1512 1512 1513 1513 1513 1514 1514 1515 1516 1517
1484 1491 1494 1511 1515 1523 1520 1517 1514 1511 1511 1511 1512 1513 1514 1516 1516 1516 1516 1515 1514 1514 1513 1512 1512 1511 1511 1510 1510 1510 1510 1510 1510 1511 1511 1511 1511 1512 1512 1512 1513 1513 1514 1514 1515 1515 1515 1515 1516
1478 1484 1500 1510 1522 1526 1518 1517 1516 1511 1510 1511 1513 1514 1515 1516 1516 1517 1517 1516 1516 1515 1515 1514 1514 1513 1512 1512 1511 1511 1511 1511 1511 1511 1511 1511 1512 1513 1513 1514 1514 1514 1515 1515 1516 1516 1516 1516 1517
1482 1486 1495 1508 1512 1522 1526 1520 1501 1503 1505 1508 1512 1514 1515 1517 1517 1518 1518 1518 1517 1517 1517 1516 1515 1514 1513 1513 1512 1513 1512 1512 1512 1512 1512 1513 1514 1514 1515 1515 1515 1516 1517 1517 1518 1518 1518 1518 1519
1478 1482 1492 1506 1509 1512 1519 1518 1497 1499 1502 1507 1511 1514 1516 1516 1518 1519 1519 1519 1519 1519 1518 1518 1517 1516 1515 1515 1515 1515 1514 1514 1514 1514 1514 1515 1516 1516 1517 1518 1518 1518 1519 1519 1520 1520 1520 1520 1521